Atalissa, Iowa
Current Conditions -  °F | °C
As of 5:35 AM on Friday 24 Oct 2014 (Local Time) from KMUT Reporting Station
Moderate Fog Moderate Fog  
Wind Chill: 10°   Ceiling: 200
Heat Index: 10°   Visibility: 0mi
Dew Point:   Wind: 0mph
Humidity: 94%   Direction: NA
Pressure: 30.06"   Gusts: NA
Location:  41.57°N, 91.17°W
Report Text: KMUT 241035Z AUTO 00000KT M1/4SM FG OVC002 10/09 A3006 RMK AO2
Loading
Personal Weather Stations






























Interactive Weather Map
Tropical Storm Tracking
New forecast layout! Learn more

10-Day Weather Forecast

Advertisements
Track Severe Weather on mobile